Find OneWeb SL0228

NORAD ID: 48780 Int'l Des: 2021-045 Owner: ONEWEBN Country: UK Constellation: oneweb operational
LEOCIRCULARPOLARONEWEB_TYPE

リアルタイム位置

3D地球を読み込み中...

OneWeb SL0228について

説明を読み込み中...

次回通過

Passes for default location (London). Set your location on the main map for personalized predictions.

高度履歴

Loading altitude history...

軌道要素

1 48780U 21045P 26127.10027097 -.00000005 00000-0 -48230-4 0 9991
2 48780 87.8984 267.3680 0001790 94.8896 265.2439 13.15548994238920
Epoch: May 7, 2026 • Age: 16 hours

現在のステータス

高度 1218.0 km
速度 7.24 km/s
衛星直下点 -40.39°S, 48.46°W
打ち上げ日 May 28, 2021
運用期間 4.9 years
タイプ internet

技術仕様

分類 Payload
質量 148.00 kg
乾燥質量 140.00 kg
総質量 148.00 kg
長さ 1.30 m
直径 1.00 m
スパン 5.00 m
形状 Trapezoid+2 pan
製造者 ONEWUS
バスタイプ ARROW
フェーズステータス In Orbit
所有者/国 ONEWEBN/UK

Most Searched